Location: ?????????
(44.2517°N, 135.2292°E)
Time: 03:30:06
(UTC+00:00)

Cosmos 2150 Rocket - Pass Details

Date: 19 May 2025
Orbit: 745 x 804 km, 74.0° (Epoch: 15 June)

Event Time Altitude Azimuth Distance (km) Brightness Sun altitude
Rises 13:12:51 0° 336° (NNW) 3,296 8.8 -21.7°
Reaches altitude 10° 13:15:15 10° 334° (NNW) 2,370 7.7 -21.9°
Maximum altitude 13:20:36 68° 253° (WSW) 863 4.2 -22.3°
Enters shadow 13:22:04 47° 190° (S) 1,055 4.3 -22.4°
